DW9686 Weather Reports


time (UTC)temp
F
wind
direction
speed
knots
gust
knots
rain 1hr
in
rain 24hr
in
rain mn
in
humidity
%
barometer
mb
20260502163033 63 323 4.3 9.6 0.00 0.00 0.00 65 1014.5
20260502161532 62 334 3.5 7.0 0.00 0.00 0.00 66 1014.4
20260502151536 59 5 3.5 7.8 0.00 0.00 0.00 69 1014.1
20260502123033 56 9 4.3 9.6 0.00 0.00 0.00 68 1013.5
20260502121535 56 9 4.3 7.8 0.00 0.00 0.00 68 1013.5
20260502114534 56 11 4.3 7.8 0.00 0.00 0.00 69 1013.4
20260502113039 56 12 4.3 7.8 0.00 0.00 0.00 69 1013.4
20260502111530 56 13 3.5 7.8 0.00 0.00 0.00 69 1013.2
20260502110036 56 12 4.3 7.8 0.00 0.00 0.00 69 1013.1
20260502104537 56 12 2.6 7.0 0.00 0.00 0.00 69 1013.4
20260502103034 56 12 2.6 7.0 0.00 0.00 0.00 69 1013.4
20260502101535 56 12 4.3 8.7 0.00 0.00 0.00 69 1013.2
20260502071532 61 12 3.5 7.8 0.00 0.00 0.00 63 1013.1
20260502070052 61 12 3.5 7.0 0.00 0.00 0.00 63 1013.1
20260502064530 61 12 3.5 7.0 0.00 0.00 0.00 62 1013.1
20260502063035 62 12 4.3 7.8 0.00 0.00 0.00 62 1013.1
20260502061531 61 12 3.5 7.0 0.00 0.00 0.00 64 1013.1
20260502060040 62 12 2.6 5.2 0.00 0.00 0.00 63 1013.0
20260502054540 62 12 3.5 7.0 0.00 0.00 0.00 62 1013.2
20260502053031 62 12 2.6 6.1 0.00 0.00 0.00 62 1013.1
20260502051534 63 12 3.5 6.1 0.00 0.00 0.00 61 1013.1
20260502050032 64 12 2.6 4.3 0.00 0.00 0.00 59 1013.1
20260502044531 64 12 2.6 7.0 0.00 0.00 0.00 59 1013.0
20260502043037 64 12 1.7 4.3 0.00 0.00 0.00 59 1013.1
20260502041556 65 12 1.7 4.3 0.00 0.00 0.00 58 1013.1
20260502040048 65 12 1.7 4.3 0.00 0.00 0.00 56 1013.0
20260502034533 66 12 2.6 4.3 0.00 0.00 0.00 57 1012.9
20260502033034 67 12 1.7 3.5 0.00 0.00 0.00 54 1012.8
20260502031533 68 12 1.7 3.5 0.00 0.00 0.00 53 1012.4
20260502030040 69 12 0.9 2.6 0.00 0.00 0.00 52 1012.4
20260502024532 70 12 1.7 3.5 0.00 0.00 0.00 50 1012.3
20260502023046 71 12 1.7 3.5 0.00 0.00 0.00 51 1012.3
20260502021532 72 12 1.7 3.5 0.00 0.00 0.00 51 1012.4
20260502020032 73 12 0.9 3.5 0.00 0.00 0.00 49 1012.4
20260502014538 74 12 1.7 4.3 0.00 0.00 0.00 46 1012.5
20260502013032 76 12 1.7 3.5 0.00 0.00 0.00 44 1012.7
20260502011538 77 12 2.6 6.1 0.00 0.00 0.00 42 1012.7
20260502010031 78 12 1.7 5.2 0.00 0.00 0.00 43 1012.9
20260502004530 78 12 3.5 7.0 0.00 0.00 0.00 39 1013.0
20260502003033 78 13 2.6 7.0 0.00 0.00 0.00 40 1013.1
20260502001538 79 13 3.5 7.0 0.00 0.00 0.00 36 1013.1
20260502000049 80 13 3.5 7.8 0.00 0.00 0.00 34 1013.2
20260501234530 80 15 4.3 7.8 0.00 0.00 0.00 32 1013.2
20260501233032 80 19 4.3 8.7 0.00 0.00 0.00 31 1013.3
20260501231533 81 52 3.5 6.1 0.00 0.00 0.00 32 1013.5
20260501230105 81 53 2.6 5.2 0.00 0.00 0.00 31 1013.8
20260501224544 81 61 0.0 7.0 0.00 0.00 0.00 30 1014.1
20260501223030 81 61 3.5 7.8 0.00 0.00 0.00 30 1014.2
20260501221533 80 59 2.6 9.6 0.00 0.00 0.00 33 1014.4
20260501220034 79 36 3.5 9.6 0.00 0.00 0.00 33 1014.7
20260501214533 78 57 3.5 9.6 0.00 0.00 0.00 34 1015.1
20260501213031 78 53 4.3 10.4 0.00 0.00 0.00 33 1015.5
20260501211536 78 5 3.5 7.8 0.00 0.00 0.00 35 1015.6
20260501210030 77 19 3.5 8.7 0.00 0.00 0.00 36 1015.9
20260501204533 76 12 3.5 7.0 0.00 0.00 0.00 35 1016.0
20260501203033 75 352 2.6 7.0 0.00 0.00 0.00 41 1016.2
20260501201531 75 352 2.6 7.0 0.00 0.00 0.00 40 1016.4
20260501200032 74 5 2.6 7.0 0.00 0.00 0.00 42 1016.5
20260501194532 74 5 3.5 7.0 0.00 0.00 0.00 43 1016.5
20260501193036 73 5 3.5 7.0 0.00 0.00 0.00 47 1016.8
20260501191535 71 12 2.6 6.1 0.00 0.00 0.00 47 1017.0
20260501190033 71 13 1.7 6.1 0.00 0.00 0.00 45 1017.2
20260501184531 70 13 1.7 4.3 0.00 0.00 0.00 46 1017.3
20260501183036 69 20 0.9 6.1 0.00 0.00 0.00 49 1017.4
20260501181535 68 25 2.6 5.2 0.00 0.00 0.00 51 1017.4